Regional Weather Roundup
Issued by NWS

Home | Current Version | Previous Version | Text Only | Print | Product List | Glossary Off
Versions: 1 2 3 4 5 6 7 8 9 10 11 12 13 14 15 16 17 18 19 20 21 22 23 24 25 26 27 28 29 30 31 32 33 34 35 36 37 38 39 40 41 42 43 44 45 46 47 48 49 50

000
ASUS43 KTOP 251108
RWRKS

WEATHER ROUNDUP FOR KANSAS
NATIONAL WEATHER SERVICE GOODLAND KS
600 AM CDT SAT APR 25 2015

NOTE:  "FAIR" INDICATES FEW OR NO CLOUDS BELOW 12,000 FEET WITH NO
SIGNIFICANT WEATHER AND/OR OBSTRUCTIONS TO VISIBILITY.

KSZ001>006-013>018-027>032-041>047-251200-
NORTHWEST KANSAS

CITY           SKY/WX    TMP DP  RH WIND       PRES   REMARKS
GOODLAND       MOCLDY    45  41  86 W10       29.64R
HAYS           MOCLDY    52  43  71 W9        29.51R
HILL CITY      CLOUDY    52  48  86 NW9       29.54R
RUSSELL        MOCLDY    52  50  93 W12       29.48R
$$

KSZ061>065-074>080-084>089-251200-
SOUTHWEST KANSAS

CITY           SKY/WX    TMP DP  RH WIND       PRES   REMARKS
DODGE CITY     PTCLDY    51  44  77 W14       29.59S
ELKHART          N/A     48  35  60 W10         N/A
GARDEN CITY    PTCLDY    49  43  80 W14       29.61S
GREAT BEND     MOCLDY    52  46  82 W12       29.50S
LIBERAL        CLEAR     45  37  76 W8        29.67S
$$

KSZ066>073-081>083-090>101-251200-
SOUTHEAST KANSAS

CITY           SKY/WX    TMP DP  RH WIND       PRES   REMARKS
CHANUTE        CLOUDY    61  58  90 SW13G21   29.43S
COFFEYVILLE    CLEAR     61  57  87 SW16G28   29.47R
HUTCHINSON     MOCLDY    57  51  80 W15       29.47F
MEDICINE LODGE   N/A     53  49  86 SW7       29.55S
NEWTON         MOCLDY    54  48  82 W9        29.47F
PARSONS        CLEAR     60  58  92 SW12      29.46S
WICHITA INTL   MOCLDY    54  51  90 W7        29.47S
WICHITA JABRA  PTCLDY    54  52  93 W8        29.47R
WICHITA MCCONL MOCLDY    56  52  88 W6        29.47S
WINFIELD       PTCLDY    56  53  90 W12       29.52R
$$

KSZ007>012-019>026-033>040-048>060-102>105-251200-
NORTHEAST KANSAS

CITY           SKY/WX    TMP DP  RH WIND       PRES   REMARKS
CONCORDIA      LGT RAIN  54  53  97 NW10      29.45R
EMPORIA        CLOUDY    55  52  89 W8        29.44R
LAWRENCE       CLOUDY    56  54  93 SE8       29.40R
MANHATTAN      LGT RAIN  56  54  93 SW8       29.42F
MARYSVILLE     DRIZZLE   54  54 100 N13G18    29.36R
OLATHE IND     CLOUDY    55  54  96 SE9       29.41F
OLATHE EXE     CLOUDY    56  55  97 SE10      29.40F
SALINA         CLOUDY    56  53  90 NW6       29.43F
TOPEKA BILLARD RAIN      57  55  93 S5        29.43S FOG
TOPEKA FORBES  RAIN      57  55  93 W5        29.43R FOG
$$


USA.gov is the U.S. government's official web portal to all federal, state and local government web resources and services.